Flag for Sweden Weather past 2 weeks in Växjö, Sweden

Now
55 °F

Refreshingly cool.


Feels Like: 52 °F
Forecast: 43 / 55 °F
Wind: 12 mph from Southwest

Location: Vaxjo Airport

Current Time: May 24, 2015 at 11:42:25 AM

Latest Report: May 24, 2015 at 11:20 AM


Visibility: N/A

Pressure: 30.01 "Hg

Humidity: 59%

Dew point: 41 °F

Location of VäxjöLocation

Historic Weather in Växjö — Graph

°F

Växjö temperature yesterday

Maximum temperature yesterday: 61 °F (at 3:20 PM)
Minimum temperature yesterday: 43 °F (at 11:50 PM)
Average temperature yesterday: 52 °F

Past Weeks' High & Low Weather Summary

 TemperatureHumidityPressure
High66 °F (May 12, 1:50 PM)100% (May 9, 11:20 PM)30.30 "Hg (May 9, 11:20 PM)
Low34 °F (May 21, 5:20 AM)21% (May 15, 5:20 PM)29.53 "Hg (May 19, 9:20 AM)
Average49 °F74%29.90 "Hg
* Reported May 9 10:20 AM — May 24 10:20 AM, Växjö, Weather by CustomWeather, © 2015

Note: Actual official high and low records may vary slightly from our data, if they occured in-between our weather recording intervals... More about our weather records

Advertising

Växjö weather history for previous 24 hours

 ConditionsComfort  
Time TempWeatherWind HumidityBarometerVisibility
10:20 AM
Sun, May 24
55 °FPassing clouds.10 mph59%30.01 "HgN/A
9:50 AM54 °FScattered clouds.9 mph63%30.01 "HgN/A
9:20 AM50 °FScattered clouds.9 mph71%30.01 "HgN/A
8:50 AM48 °FPartly sunny.10 mph76%30.04 "HgN/A
8:20 AM46 °FPartly sunny.10 mph82%30.04 "HgN/A
7:50 AM46 °FLow clouds.10 mph82%30.01 "HgN/A
7:20 AM45 °FLow clouds.10 mph87%30.01 "HgN/A
6:50 AM43 °FLow clouds.8 mph93%30.01 "HgN/A
6:20 AM43 °FLow clouds.9 mph93%30.01 "HgN/A
5:50 AM43 °FLow clouds.7 mph93%30.01 "HgN/A
5:20 AM43 °FLow clouds.6 mph93%30.01 "HgN/A
4:50 AM41 °FPassing clouds.7 mph93%30.01 "HgN/A
4:20 AM39 °FPassing clouds.5 mph100%30.01 "HgN/A
3:50 AM39 °FChilly.6 mph100%30.01 "HgN/A
3:20 AM39 °FChilly.5 mph100%30.01 "HgN/A
2:50 AM41 °FQuite cool.5 mph93%30.01 "HgN/A
2:20 AM41 °FQuite cool.6 mph93%30.04 "HgN/A
1:50 AM41 °FQuite cool.5 mph93%30.04 "HgN/A
1:20 AM43 °FQuite cool.6 mph87%30.04 "HgN/A
12:50 AM43 °FQuite cool.5 mph87%30.04 "HgN/A
12:20 AM43 °FQuite cool.5 mph87%30.04 "HgN/A
11:50 PM
Sat, May 23
43 °FQuite cool.6 mph87%30.04 "HgN/A
11:20 PM46 °FCool.6 mph76%30.04 "HgN/A
10:50 PM46 °FCool.7 mph76%30.04 "HgN/A
10:20 PM48 °FCool.7 mph71%30.04 "HgN/A
9:50 PM50 °FCool.7 mph67%30.01 "HgN/A
9:20 PM50 °FCool.7 mph67%30.01 "HgN/A
8:50 PM54 °FCool.8 mph58%30.01 "HgN/A
8:20 PM55 °FRefreshingly cool.9 mph55%30.01 "HgN/A
7:50 PM55 °FRefreshingly cool.10 mph55%30.01 "HgN/A
7:20 PM57 °FRefreshingly cool.10 mph51%30.01 "HgN/A
6:50 PM57 °FRefreshingly cool.10 mph51%29.98 "HgN/A
6:20 PM59 °FScattered clouds.13 mph48%29.98 "HgN/A
5:50 PM59 °FPassing clouds.12 mph48%29.98 "HgN/A
5:20 PM59 °FPassing clouds.13 mph45%29.98 "HgN/A
4:50 PM59 °FPartly sunny.12 mph48%29.98 "HgN/A
4:20 PM61 °FPassing clouds.12 mph45%29.98 "HgN/A
3:50 PM61 °FPassing clouds.13 mph48%29.98 "HgN/A
3:20 PM61 °FPassing clouds.14 mph45%29.98 "HgN/A
2:50 PM59 °FPassing clouds.13 mph51%29.98 "HgN/A
2:20 PM59 °FScattered clouds.14 mph48%29.98 "HgN/A
1:50 PM57 °FScattered clouds.14 mph55%29.98 "HgN/A
1:20 PM57 °FScattered clouds.14 mph55%29.98 "HgN/A
12:50 PM55 °FPartly sunny.13 mph59%29.98 "HgN/A
12:20 PM55 °FPassing clouds.15 mph59%29.98 "HgN/A
11:50 AM55 °FScattered clouds.14 mph59%30.01 "HgN/A
11:20 AM54 °FPassing clouds.16 mph63%30.01 "HgN/A
Weather by CustomWeather, © 2015

See weather overviewHow to use our weather pages